Location: Erlenbrunn
(49.1717°N, 7.6142°E)
Time: 18:19:57
(UTC+00:00)

Cosmos 2074 Rocket - Pass Details

Date: 25 November 2020
Orbit: 968 x 985 km, 82.9° (Epoch: 22 January)

Event Time Altitude Azimuth Distance (km) Brightness Sun altitude
Rises 16:22:45 0° 349° (N) 3,677 6.9 -7.3°
Reaches altitude 10° 16:25:15 10° 348° (NNW) 2,728 6.2 -7.7°
Maximum altitude 16:31:30 78° 264° (W) 1,000 4.2 -8.7°
Drops below altitude 10° 16:37:44 10° 179° (S) 2,720 6.6 -9.6°
Sets 16:40:14 0° 178° (S) 3,666 7.3 -10.0°
